Location: Peach Mountain Observatory
(42.3967°N, 83.9367°W)
Time: 07:02:03
(UTC-05:00)

ISS - Visible Passes

Search period start: 21 January 2021 00:00
Search period end: 31 January 2021 00:00
Orbit: 418 x 419 km, 51.6° (Epoch: 21 January)

Date Brightness Start Highest point End Pass type
(mag) Time Alt. Az. Time Alt. Az. Time Alt. Az.
21 Jan -3.3 18:04:30 10° SW 18:07:45 48° SE 18:11:00 10° ENE visible
21 Jan -2.1 19:41:38 10° W 19:44:11 28° NW 19:44:11 28° NW visible
22 Jan -2.8 18:53:35 10° W 18:56:48 41° NNW 18:58:30 23° NNE visible
23 Jan -3.4 18:05:39 10° WSW 18:08:59 62° NNW 18:12:19 10° NE visible
23 Jan -1.5 19:43:42 10° WNW 19:45:42 19° NNW 19:45:42 19° NNW visible
24 Jan -2.0 18:55:31 10° WNW 18:58:18 23° NNW 18:59:55 17° NNE visible
25 Jan -2.3 18:07:21 10° W 18:10:22 30° NNW 18:13:24 10° NE visible
25 Jan -1.3 19:45:39 10° NW 19:47:04 15° NNW 19:47:04 15° NNW visible
26 Jan -1.7 18:57:32 10° NW 18:59:55 18° N 19:01:14 15° NNE visible
27 Jan -1.8 18:09:19 10° WNW 18:11:53 20° NNW 18:14:28 10° NE visible
27 Jan -1.3 19:47:09 10° NW 19:48:20 15° NNW 19:48:20 15° NNW visible
28 Jan -1.7 18:59:14 10° NW 19:01:32 17° N 19:02:30 15° NNE visible
29 Jan -1.5 19:48:15 10° NW 19:49:38 18° NNW 19:49:38 18° NNW visible
30 Jan -2.1 19:00:28 10° NW 19:03:06 20° NNE 19:03:52 19° NNE visible
